timestamp,wind_dir_avg,wind_spd_avg,wind_spd_max_dir,wind_spd_gust,battery_voltage,lat,long
2020-12-23 00:04:01+00:00,233.0,14.29,240.0,18.56,12.33,47.59359,-54.27349
2020-12-23 00:14:01+00:00,226.0,13.16,227.0,15.21,12.33,47.59359,-54.27349
2020-12-23 00:24:01+00:00,228.0,13.95,219.0,19.13,12.33,47.59359,-54.27349
2020-12-23 00:34:01+00:00,226.0,12.65,228.0,14.82,12.33,47.59359,-54.27349
2020-12-23 00:44:01+00:00,230.0,14.06,238.0,19.12,12.33,47.59359,-54.27349
2020-12-23 00:54:01+00:00,228.0,15.66,228.0,19.48,12.33,47.59359,-54.27349
2020-12-23 01:04:01+00:00,214.0,13.32,214.0,15.91,12.33,47.59359,-54.27349
2020-12-23 01:14:01+00:00,223.0,14.2,229.0,17.62,12.33,47.59359,-54.27349
2020-12-23 01:24:01+00:00,228.0,15.57,228.0,20.53,12.33,47.59359,-54.27349
2020-12-23 01:34:01+00:00,235.0,12.32,243.0,15.57,12.33,47.59359,-54.27349
2020-12-23 01:44:01+00:00,232.0,13.45,236.0,18.13,12.33,47.59359,-54.27349
2020-12-23 01:54:01+00:00,225.0,14.51,224.0,17.45,12.33,47.59359,-54.27349
2020-12-23 02:04:01+00:00,233.0,12.13,241.0,15.36,12.33,47.59359,-54.27349
2020-12-23 02:14:01+00:00,234.0,13.0,230.0,15.26,12.33,47.59359,-54.27349
2020-12-23 02:24:01+00:00,231.0,10.77,227.0,13.41,12.33,47.59359,-54.27349
2020-12-23 02:34:01+00:00,224.0,12.46,231.0,14.18,12.33,47.59359,-54.27349
2020-12-23 02:44:01+00:00,219.0,11.79,218.0,15.31,12.33,47.59359,-54.27349
2020-12-23 02:54:01+00:00,226.0,13.74,231.0,16.18,12.33,47.59359,-54.27349
2020-12-23 03:04:01+00:00,226.0,12.13,229.0,14.36,12.33,47.59359,-54.27349
2020-12-23 03:14:01+00:00,226.0,14.16,219.0,17.53,12.33,47.59359,-54.27349
2020-12-23 03:24:01+00:00,227.0,13.29,227.0,15.3,12.33,47.59359,-54.27349
2020-12-23 03:34:01+00:00,227.0,12.42,231.0,14.0,12.33,47.59359,-54.27349
2020-12-23 03:44:01+00:00,233.0,13.32,223.0,16.33,12.33,47.59359,-54.27349
2020-12-23 03:54:01+00:00,233.0,12.94,238.0,15.68,12.33,47.59359,-54.27349
2020-12-23 04:04:01+00:00,230.0,11.04,230.0,12.96,12.33,47.59359,-54.27349
2020-12-23 04:14:01+00:00,246.0,12.82,249.0,15.18,12.33,47.59359,-54.27349
2020-12-23 04:24:01+00:00,235.0,10.29,238.0,11.97,12.33,47.59359,-54.27349
2020-12-23 04:34:01+00:00,228.0,10.59,225.0,11.76,12.33,47.59359,-54.27349
2020-12-23 04:44:01+00:00,231.0,9.9,225.0,12.74,12.33,47.59359,-54.27349
2020-12-23 04:54:01+00:00,227.0,8.78,223.0,10.49,12.33,47.59359,-54.27349
2020-12-23 05:04:01+00:00,227.0,8.99,228.0,10.79,12.33,47.59359,-54.27349
2020-12-23 05:14:01+00:00,230.0,8.64,231.0,10.03,12.33,47.59359,-54.27349
2020-12-23 05:24:01+00:00,230.0,9.43,230.0,10.81,12.33,47.59359,-54.27349
2020-12-23 05:34:01+00:00,229.0,9.59,232.0,11.62,12.33,47.59359,-54.27349
2020-12-23 05:44:01+00:00,230.0,10.07,228.0,11.6,12.33,47.59359,-54.27349
2020-12-23 05:54:01+00:00,235.0,9.51,242.0,10.73,12.33,47.59359,-54.27349
2020-12-23 06:04:01+00:00,235.0,9.79,240.0,10.89,12.33,47.59359,-54.27349
2020-12-23 06:14:01+00:00,237.0,8.72,234.0,9.56,12.33,47.59359,-54.27349
2020-12-23 06:24:01+00:00,247.0,7.3,245.0,8.44,12.33,47.59359,-54.27349
2020-12-23 06:34:01+00:00,237.0,7.46,238.0,9.0,12.33,47.59359,-54.27349
2020-12-23 06:44:01+00:00,225.0,8.52,224.0,9.84,12.33,47.59359,-54.27349
2020-12-23 06:54:01+00:00,226.0,8.75,225.0,10.04,12.33,47.59359,-54.27349
2020-12-23 07:04:01+00:00,229.0,8.98,230.0,10.56,12.33,47.59359,-54.27349
2020-12-23 07:14:01+00:00,232.0,7.79,233.0,10.2,12.25,47.59359,-54.27349
2020-12-23 07:24:01+00:00,247.0,10.26,255.0,11.37,12.25,47.59359,-54.27349
2020-12-23 07:34:01+00:00,250.0,9.32,252.0,10.09,12.25,47.59359,-54.27349
2020-12-23 07:44:01+00:00,249.0,7.82,252.0,9.28,12.25,47.59359,-54.27349
2020-12-23 07:54:01+00:00,241.0,9.44,242.0,10.16,12.25,47.59359,-54.27349
2020-12-23 08:04:01+00:00,244.0,8.99,242.0,9.82,12.25,47.59359,-54.27349
2020-12-23 08:14:01+00:00,236.0,8.99,237.0,9.71,12.33,47.59359,-54.27349
2020-12-23 08:24:01+00:00,235.0,8.58,236.0,9.43,12.33,47.59359,-54.27349
2020-12-23 08:34:01+00:00,235.0,7.64,233.0,8.94,12.33,47.59359,-54.27349
2020-12-23 08:44:01+00:00,233.0,7.18,238.0,8.38,12.33,47.59359,-54.27349
2020-12-23 08:54:01+00:00,231.0,7.77,239.0,8.79,12.33,47.59359,-54.27349
2020-12-23 09:04:01+00:00,229.0,9.13,231.0,10.29,12.33,47.59359,-54.27349
2020-12-23 09:14:01+00:00,223.0,7.85,223.0,8.87,12.25,47.59359,-54.27349
2020-12-23 09:24:01+00:00,232.0,7.38,233.0,9.02,12.25,47.59359,-54.27349
2020-12-23 09:34:01+00:00,232.0,7.53,234.0,9.03,12.25,47.59359,-54.27349
2020-12-23 09:44:01+00:00,238.0,7.33,242.0,9.04,12.25,47.59359,-54.27349
2020-12-23 09:54:01+00:00,247.0,8.55,248.0,9.27,12.25,47.59359,-54.27349
2020-12-23 10:04:01+00:00,257.0,9.01,257.0,10.2,12.25,47.59359,-54.27349
2020-12-23 10:14:01+00:00,254.0,9.32,253.0,11.43,12.25,47.59359,-54.27349
2020-12-23 10:24:01+00:00,245.0,8.15,240.0,9.49,12.25,47.59359,-54.27349
2020-12-23 10:34:01+00:00,250.0,8.08,243.0,9.01,12.25,47.59359,-54.27349
2020-12-23 10:44:01+00:00,255.0,6.74,256.0,7.8,12.25,47.59359,-54.27349
2020-12-23 10:54:01+00:00,245.0,6.94,239.0,7.67,12.25,47.59359,-54.27349
2020-12-23 11:04:01+00:00,248.0,7.38,248.0,8.67,12.25,47.59359,-54.27349
2020-12-23 11:14:01+00:00,247.0,7.5,249.0,8.37,12.25,47.59359,-54.27349
2020-12-23 11:24:01+00:00,241.0,8.55,241.0,9.84,12.25,47.59359,-54.27349
2020-12-23 11:34:01+00:00,242.0,8.77,245.0,9.47,12.25,47.59359,-54.27349
2020-12-23 11:44:01+00:00,243.0,8.18,243.0,8.97,12.25,47.59359,-54.27349
2020-12-23 11:54:01+00:00,244.0,8.23,240.0,9.26,12.25,47.59359,-54.27349
2020-12-23 12:04:01+00:00,249.0,8.35,255.0,9.06,12.25,47.59359,-54.27349
2020-12-23 12:14:01+00:00,241.0,9.56,246.0,10.74,12.25,47.59359,-54.27349
2020-12-23 12:24:01+00:00,249.0,7.23,249.0,8.34,12.25,47.59359,-54.27349
2020-12-23 12:34:01+00:00,262.0,7.22,261.0,8.15,12.25,47.59359,-54.27349
2020-12-23 12:44:01+00:00,246.0,7.66,245.0,8.6,12.25,47.59359,-54.27349
2020-12-23 12:54:01+00:00,244.0,7.76,243.0,8.66,12.25,47.59359,-54.27349
2020-12-23 13:04:01+00:00,244.0,8.05,247.0,8.84,12.25,47.59359,-54.27349
2020-12-23 14:14:01+00:00,261.0,7.82,263.0,9.45,12.73,47.59359,-54.27349
2020-12-23 14:24:01+00:00,266.0,8.83,263.0,9.73,12.73,47.59359,-54.27349
2020-12-23 14:34:01+00:00,281.0,7.53,287.0,8.99,12.73,47.59359,-54.27349
2020-12-23 14:44:01+00:00,270.0,7.36,280.0,8.59,12.73,47.59359,-54.27349
2020-12-23 14:54:01+00:00,254.0,6.99,260.0,8.46,12.73,47.59359,-54.27349
2020-12-23 15:04:01+00:00,233.0,7.0,232.0,8.9,12.73,47.59359,-54.27349
2020-12-23 15:14:01+00:00,233.0,7.87,232.0,8.57,13.92,47.59359,-54.27349
2020-12-23 15:24:01+00:00,270.0,7.98,273.0,9.57,13.92,47.59359,-54.27349
2020-12-23 15:34:01+00:00,292.0,6.25,295.0,7.27,13.92,47.59359,-54.27349
2020-12-23 15:44:01+00:00,298.0,7.81,300.0,9.01,13.92,47.59359,-54.27349
2020-12-23 15:54:01+00:00,265.0,7.77,269.0,9.6,13.92,47.59359,-54.27349
2020-12-23 16:04:01+00:00,269.0,8.94,270.0,10.04,13.92,47.59359,-54.27349
2020-12-23 16:14:01+00:00,267.0,8.13,271.0,10.86,13.05,47.59359,-54.27349
2020-12-23 16:24:01+00:00,283.0,8.74,283.0,9.67,13.05,47.59359,-54.27349
2020-12-23 16:34:01+00:00,296.0,7.11,299.0,8.5,13.05,47.59359,-54.27349
2020-12-23 16:44:01+00:00,299.0,7.29,303.0,8.88,13.05,47.59359,-54.27349
2020-12-23 16:54:01+00:00,268.0,8.1,268.0,8.77,13.05,47.59359,-54.27349
2020-12-23 17:04:01+00:00,273.0,7.14,271.0,8.26,13.05,47.59359,-54.27349
2020-12-23 17:14:01+00:00,280.0,7.79,283.0,9.31,12.97,47.59359,-54.27349
2020-12-23 17:24:01+00:00,301.0,7.16,301.0,8.35,12.97,47.59359,-54.27349
2020-12-23 17:34:01+00:00,272.0,7.15,270.0,7.86,12.97,47.59359,-54.27349
2020-12-23 17:44:01+00:00,286.0,7.23,284.0,8.03,12.97,47.59359,-54.27349
2020-12-23 17:54:01+00:00,285.0,6.29,277.0,7.54,12.97,47.59359,-54.27349
2020-12-23 18:04:01+00:00,309.0,6.39,311.0,7.28,12.97,47.59359,-54.27349
2020-12-23 18:14:01+00:00,301.0,7.28,305.0,8.94,12.81,47.59359,-54.27349
2020-12-23 18:24:01+00:00,308.0,8.41,320.0,10.38,12.81,47.59359,-54.27349
2020-12-23 18:34:01+00:00,310.0,7.67,315.0,8.59,12.81,47.59359,-54.27349
2020-12-23 18:44:01+00:00,305.0,8.19,310.0,9.36,12.81,47.59359,-54.27349
2020-12-23 18:54:01+00:00,308.0,7.83,321.0,9.46,12.81,47.59359,-54.27349
2020-12-23 19:04:01+00:00,317.0,7.27,323.0,8.4,12.81,47.59359,-54.27349
2020-12-23 19:14:01+00:00,302.0,7.18,303.0,8.06,12.65,47.59359,-54.27349
2020-12-23 19:24:01+00:00,304.0,6.81,307.0,8.11,12.65,47.59359,-54.27349
2020-12-23 19:34:01+00:00,301.0,5.68,303.0,7.08,12.65,47.59359,-54.27349
2020-12-23 19:44:01+00:00,307.0,6.32,310.0,7.94,12.65,47.59359,-54.27349
2020-12-23 19:54:01+00:00,314.0,7.79,313.0,9.18,12.65,47.59359,-54.27349
2020-12-23 20:04:01+00:00,313.0,7.67,308.0,10.53,12.65,47.59359,-54.27349
2020-12-23 20:14:01+00:00,305.0,8.87,306.0,10.01,12.65,47.59359,-54.27349
2020-12-23 20:24:01+00:00,313.0,5.69,309.0,6.75,12.65,47.59359,-54.27349
2020-12-23 20:34:01+00:00,313.0,6.3,307.0,7.34,12.65,47.59359,-54.27349
2020-12-23 20:44:01+00:00,305.0,8.46,309.0,11.3,12.65,47.59359,-54.27349
2020-12-23 20:54:01+00:00,325.0,7.53,322.0,9.05,12.65,47.59359,-54.27349
2020-12-23 21:04:01+00:00,309.0,8.96,304.0,10.29,12.65,47.59359,-54.27349
2020-12-23 21:14:01+00:00,304.0,6.99,308.0,7.88,12.57,47.59359,-54.27349
2020-12-23 21:24:01+00:00,315.0,5.72,314.0,6.48,12.57,47.59359,-54.27349
2020-12-23 21:34:01+00:00,320.0,4.58,319.0,5.52,12.57,47.59359,-54.27349
2020-12-23 21:44:01+00:00,294.0,4.71,297.0,5.54,12.57,47.59359,-54.27349
2020-12-23 21:54:01+00:00,309.0,5.86,308.0,6.47,12.57,47.59359,-54.27349
2020-12-23 22:04:01+00:00,305.0,8.07,307.0,9.27,12.57,47.59359,-54.27349
2020-12-23 22:14:01+00:00,301.0,6.07,293.0,7.44,12.57,47.59359,-54.27349
2020-12-23 22:24:01+00:00,318.0,6.77,313.0,7.79,12.57,47.59359,-54.27349
2020-12-23 22:34:01+00:00,322.0,7.11,339.0,8.96,12.57,47.59359,-54.27349
2020-12-23 22:44:01+00:00,320.0,6.42,317.0,9.24,12.57,47.59359,-54.27349
2020-12-23 22:54:01+00:00,330.0,8.21,323.0,10.01,12.57,47.59359,-54.27349
2020-12-23 23:04:01+00:00,307.0,7.65,309.0,8.98,12.57,47.59359,-54.27349
2020-12-23 23:14:01+00:00,308.0,7.66,310.0,8.72,12.49,47.59359,-54.27349
2020-12-23 23:24:01+00:00,323.0,5.78,327.0,6.63,12.49,47.59359,-54.27349
2020-12-23 23:34:01+00:00,315.0,6.61,309.0,8.95,12.49,47.59359,-54.27349
2020-12-23 23:44:01+00:00,321.0,9.18,317.0,10.58,12.49,47.59359,-54.27349
2020-12-23 23:54:01+00:00,327.0,8.57,328.0,9.42,12.49,47.59359,-54.27349
